Weather Roundup
Issued by NWS

Home | Current Version | Previous Version | Graphics & Text | Print | Product List | Glossary Off
Versions: 1 2 3 4 5 6 7 8 9 10 11 12 13 14 15 16 17 18 19 20 21 22 23 24 25 26 27 28 29 30 31 32 33 34 35 36 37 38 39 40 41 42 43 44 45 46 47 48 49 50

768
NZUS93 KARX 271610
HRRWXR

CURRENT HOURLY OBSERVATIONS ACROSS
MUCH OF THE UPPER MISSISSIPPI VALLEY
NATIONAL WEATHER SERVICE LA CROSSE WI
1100 AM CDT THU JUL 27 2017


...SOUTHEAST MINNESOTA...


CITY           SKY/WX    TMP DP  RH WIND       PRES   REMARKS
ROCHESTER      SUNNY     78  66  66 NE7       30.08S
ROCHESTER/MAYO FAIR      78  62  57 N7        30.08S
WINONA         SUNNY     77  63  61 CALM      30.06R
AUSTIN         SUNNY     79  64  61 NE5       30.07F
ALBERT LEA     SUNNY     79  66  65 NE5       30.08S
DODGE CENTER   SUNNY     75  64  69 N6        30.09S
PRESTON        SUNNY     75  61  61 NE5       30.08S
OWATONNA       SUNNY     77  66  69 N5        30.09S
FARIBAULT      SUNNY     77  66  69 N3        30.09S
$$

...ELSEWHERE IN MINNESOTA...


CITY           SKY/WX    TMP DP  RH WIND       PRES   REMARKS
MINNEAPOLIS    SUNNY     80  60  50 CALM      30.09R
INTNL FALLS    SUNNY     78  58  49 CALM      30.11S
DULUTH         MOSUNNY   75  60  59 SE8       30.11S
RED WING       SUNNY     79  61  53 NE3       30.06S
REDWOOD FALLS  SUNNY     79  62  56 N8        30.11S
MANKATO        SUNNY     76  65  68 NE6       30.10S
WORTHINGTON    SUNNY     75  63  66 NE8       30.14S
FAIRMONT       SUNNY     78  65  63 VRB3      30.10S
$$

...SOUTHWEST WISCONSIN...


CITY           SKY/WX    TMP DP  RH WIND       PRES   REMARKS
LA CROSSE      SUNNY     81  65  58 NW8       30.04R
PRAIRIE DU CHI SUNNY     79  61  54 NE7       30.02R
BOSCOBEL       SUNNY     80  60  50 E8        30.02S
LONE ROCK      SUNNY     79  63  57 VRB5      30.02R
PLATTEVILLE    SUNNY     78  68  72 NE8       30.02S
FORT MC COY    SUNNY     78  59  52 N5        30.05S
CAMP DOUGLAS   MOSUNNY   79  63  57 E6        30.04R
MAUSTON-NEW LI SUNNY     77  62  60 CALM      30.03S
VIROQUA        FAIR      76  62  60 NE8       30.06R
WIS DELLS      SUNNY     77  59  53 NE7       30.04R
$$

...ELSEWHERE IN WISCONSIN...


CITY           SKY/WX    TMP DP  RH WIND       PRES   REMARKS
MILWAUKEE      MOSUNNY   75  67  76 N18G24    29.99R
MADISON        SUNNY     78  61  55 NE13      30.01S
GREEN BAY      SUNNY     77  67  71 NE9       30.03S
EAU CLAIRE     SUNNY     78  61  55 NE6       30.06S
BLACK RVR FLS  FAIR      80  59  48 CALM      30.05R
MEDFORD        SUNNY     75  60  58 NE9       30.08S
WAUSAU         SUNNY     76  59  55 E12       30.04F
WIS RAPIDS     SUNNY     80  60  50 E8        30.06R
MARSHFIELD     SUNNY     78  61  55 NE8       30.06R
RICE LAKE      SUNNY     77  61  57 CALM      30.10S
$$

...NORTHEAST IOWA...


CITY           SKY/WX    TMP DP  RH WIND       PRES   REMARKS
WATERLOO       SUNNY     79  63  57 NE13      30.02S
DUBUQUE        MOSUNNY   77  69  76 N9        30.01S
DECORAH        SUNNY     77  64  65 VRB7      30.05R
MASON CITY     SUNNY     78  66  66 NE7       30.08S
CHARLES CITY   SUNNY     77  63  61 NE9       30.06S
OELWEIN        SUNNY     77  68  73 NE10      30.04S
$$

...ELSEWHERE IN IOWA...


CITY           SKY/WX    TMP DP  RH WIND       PRES   REMARKS
DES MOINES     MOSUNNY   80  68  66 NE10      30.01S
IOWA CITY      PTSUNNY   81  71  71 NE10      30.00S
FORT DODGE     SUNNY     77  64  65 N7        30.08R
MARSHALLTOWN   SUNNY     80  66  62 NE13      30.02S
CEDAR RAPIDS   MOSUNNY   81  72  74 NE9       29.99S
$$

...NORTHERN ILLINOIS...


CITY           SKY/WX    TMP DP  RH WIND       PRES   REMARKS
CHICAGO-OHARE  PTSUNNY   82  69  64 NE10      29.95S
CHICAGO-MIDWAY PTSUNNY   81  70  69 NE15      29.94R
MOLINE         CLOUDY    77  70  79 N7        29.97S
ROCKFORD       CLOUDY    79  69  71 NE12      29.98S
PEORIA         CLOUDY    78  73  84 CALM      29.94S
$$

NOTE: "FAIR" INDICATES FEW OR NO CLOUDS BELOW 12,000 FEET WITH NO
SIGNIFICANT WEATHER AND/OR OBSTRUCTIONS TO VISIBILITY. WIND
SPEEDS ARE IN MILES-PER-HOUR.




USA.gov is the U.S. government's official web portal to all federal, state and local government web resources and services.